This is the latest recevied weather packets stored in our database for station/object KQ4WWD. If no packets are shown the sender has not sent any weather packets the latest 10 day(s).
| Time | Temp. | Humidity | Pressure | Rain* | Wind** | Luminosity | Snow |
|---|---|---|---|---|---|---|---|
| 1777736072 | 28.33° C | 74% | 1010.1 hPa | 0 mm | - | 350 W/m² | - |
| 1777735769 | 28.33° C | 74% | 1010.1 hPa | 0 mm | - | 341 W/m² | - |
| 1777735466 | 27.78° C | 76% | 1009.9 hPa | 0 mm | - | 308 W/m² | - |
| 1777735164 | 27.78° C | 75% | 1010.2 hPa | 0 mm | - | 507 W/m² | - |
| 1777734860 | 27.22° C | 77% | 1010 hPa | 0 mm | - | 444 W/m² | - |
| 1777734558 | 27.22° C | 78% | 1010.1 hPa | 0 mm | - | 444 W/m² | - |
| 1777734254 | 26.67° C | 78% | 1009.7 hPa | 0 mm | - | 321 W/m² | - |
| 1777733951 | 26.11° C | 80% | 1010.1 hPa | 0 mm | - | 281 W/m² | - |
| 1777733648 | 26.11° C | 81% | 1010.3 hPa | 0 mm | - | 245 W/m² | - |
| 1777733344 | 25.56° C | 82% | 1010.5 hPa | 0 mm | - | 230 W/m² | - |
| 1777733041 | 25.56° C | 82% | 1010.5 hPa | 0 mm | - | 232 W/m² | - |
| 1777732737 | 25.56° C | 82% | 1010.4 hPa | 0 mm | - | 244 W/m² | - |
| 1777732434 | 25° C | 83% | 1010.2 hPa | 0 mm | - | 229 W/m² | - |
| 1777732132 | 25° C | 84% | 1010.5 hPa | 0 mm | - | 216 W/m² | - |
| 1777731828 | 25° C | 84% | 1010.2 hPa | 0 mm | - | 196 W/m² | - |
| 1777731525 | 25° C | 85% | 1010.3 hPa | 0 mm | - | 190 W/m² | - |
| 1777731223 | 24.44° C | 85% | 1010.2 hPa | 0 mm | - | 206 W/m² | - |
| 1777730920 | 24.44° C | 86% | 1010.5 hPa | 0 mm | - | 159 W/m² | - |
| 1777730618 | 24.44° C | 86% | 1010.6 hPa | 0 mm | - | 139 W/m² | - |
| 1777730314 | 24.44° C | 86% | 1010.6 hPa | 0 mm | - | 141 W/m² | - |
| 1777730011 | 24.44° C | 87% | 1010.5 hPa | 0 mm | - | 129 W/m² | - |
| 1777729707 | 23.89° C | 88% | 1010.4 hPa | 0 mm | - | 104 W/m² | - |
| 1777729404 | 23.89° C | 89% | 1010.5 hPa | 0 mm | - | 82 W/m² | - |
| 1777729100 | 23.89° C | 89% | 1010.4 hPa | 0 mm | - | 79 W/m² | - |
| 1777728797 | 23.89° C | 89% | 1010.6 hPa | 0 mm | - | 92 W/m² | - |
* Rain latest hour (hover to see other rain measurements)
** Current wind speed in m/s (hover to see current wind gust speed)